Retour au catalogue

COSMOS 385

ActifMilitaireLEO
NORAD 4799·PAYLOAD·🇷🇺 Russia

Lancé Dec 12, 1970 depuis Plesetsk Cosmodrome

Loading…

Prochains Passages

TLE

Source: Space-Track
1  4799U 70108A   26224.19159478  .00000005  00000-0  28322-4 0  9991
2  4799  74.0221 296.3759 0004480 237.7352 187.5711 13.76984177796266

Suivez COSMOS 385 en temps réel avec AllMySat

Download on the App Store